Погода в Уржаре

Погода в Уржаре : погода сейчас, прогноз погоды и архив. Всё, что Вы хотите узнать о погоде в Уржаре!

Поиск расширенной информации на нашем сайте:

Другие новости

Новости СМИ2

Главная страница сайта

Новости сайта

02.10.2013

Напоминаем, что на нашем новом сайте вы можете получить высокодетализированные прогнозы погоды по пунктам России, СНГ и мира (включающие важные для авиации метеовеличины, такие как направление и скорость ветра, видимость, явления погоды, количество и форма облачности, нижняя и верхняя граница облачности), а также ознакомиться с разнообразными материалами по авиационной метеорологии и подборкой полезных ссылок на эту тему.

Сайт Метеоцентр.Азия посвящён разработке технологий оптимизации авиаметеорологического обслуживания, включая проектирование и перспективное создание нескольких автоматизированных авиаметеорологических систем:
- система выпуска высокодетальных прогностических карт явлений погоды для нижнего воздушного пространства по России и ближнему зарубежью;
- система верификации прогнозов TAF (выпускаемых синоптиками официальных АМСГ РФ и ближнего зарубежья) и AUTOTAF (выпускаемых сайтом Метеоцентр.Азия) - выявление ошибок, онлайн-сопоставление с фактической погодой METAR, автоматическое внесение коррективов в прогнозы при резком отклонении фактической погоды от прогноза, подсчёт оправдываемости прогнозов по элементам и в целом;
- система обработки, анализа и отображения авиаметеорологической информации для применения провайдерами метеорологической информации.


Погода в Уржаре - сегодня

Время (UTC), дата Ветер
(°,м/с) 
Видим.   Явления Облачность Т
(°С)
Тd
(°С)
f(%) Тe
(°С)
Pmin
(гПа)
dP
(гПа)
Po
(мм)
O2
(г/м3)
Тmin Tmax R s Состояние
почвы
18 22.05.17 070 (В) н/о    3/0 верхняя 
[Ci fib]
+15 +8.2 64 +16  1012.5  0.1  717  272    +25.7       
21 22.05.17 080 (В) н/о    3/0 верхняя 
[Ci fib]
+17.7 +12.4 71 +23  1010.4  -1.4  716  268           
00 23.05.17 080 (В) 20000 м    3/0 верхняя 
[Ci fib]
+21 +14.5 66 +30  1009.3  -0.4  716  265           
03 23.05.17 100 (В) 20000 м    3/0 верхняя 
[Ci fib]
+23.5 +1.6 24 +24  1011.6  2.4  717  266           
06 23.05.17 110 (В) 20000 м    ясно 
+27.2 +3.4 22 +27  1010.6  -0.3  717  262  +14.7         
09 23.05.17 120 (ЮВ) 20000 м    ясно 
+29.6 +2.8 18 +30  1009.3  -0.8  717  260           
12 23.05.17 тихо ()   20000 м    ясно 
+28.5 +7.1 26 +29  1009.4  717  260           
15 23.05.17 тихо ()   20000 м    3/0 средняя, верхняя 
[Ac trans|Ci fib]
+18.2 +11.2 64 +22  1012.5  1.1  717  269    +30.1       
18 23.05.17 тихо ()   н/о    3/0 средняя 
[Ac trans]
+10.3 +6.3 76 +10  1014.6  0.4  718  278    +30.1       
21 23.05.17 тихо ()   н/о    6/0 средняя 
[Ac trans]
+11 +7.6 80 +11  1014.2  -0.2  718  277           
00 24.05.17 тихо ()   20000 м    9/4 600 м средняя, верхняя 
[Sc|Ac und|Ci sp]
+15.4 +11.6 78 +20  1014.3  718  272           
03 24.05.17 тихо ()   20000 м    9/0 кучево-дожд., средняя, верхняя 
[Cb cap|Ac und|Ci sp]
+22.2 +13 56 +29  1014.5  1.5  719  266           
06 24.05.17 320 (СЗ) 20000 м    8/3 600 м средняя, верхняя 
[Sc|Ac und|Ci sp]
+22.4 +8.8 42 +23  1015  0.4  720  266  +10         
09 24.05.17 060 (СВ) 20000 м    4/3 600 м верхняя 
[Cu med, cong|Ci sp]
+27.2 +4.7 24 +27  1012.7  -1.4  719  263           
12 24.05.17 тихо ()   20000 м    3/3 600 м верхняя 
[Cu med, cong|Ci sp]
+27.7 +5.3 24 +28  1011.2  -1.3  718  262           
15 24.05.17 тихо ()   20000 м    3/0 верхняя 
[Ci fib]
+18.1 +13.1 73 +25  1012.8  -0.1  718  269    +28.2       
18 24.05.17 тихо ()   н/о    ясно 
+11.6 +8 79 +12  1014.3  0.1  718  276    +28.2       
21 24.05.17 тихо ()   н/о    ясно 
+10.3 +7.4 82 +10  1013.7  -0.8  717  277           
00 25.05.17 тихо ()   20000 м    3/0 верхняя 
[Ci fib]
+11 +8.2 83 +11  1013.2  -0.3  717  276           
03 25.05.17 060 (СВ) 20000 м    6/0 верхняя 
[Ci fib]
+24.6 +14.2 52 +33  1010.8  0.3  717  262           
06 25.05.17 тихо ()   20000 м    6/3 600 м кучево-дожд., верхняя 
[Cb calv|Ci sp]
+28.4 +12.7 38 +34  1009.6  -0.5  717  259  +9.6         
09 25.05.17 тихо ()   20000 м  {ливн. осадки}  6/4 600 м кучево-дожд. 
[Cb cap]
+28.8 +12.4 36 +34  1008.1  -1.3  716  259           
12 25.05.17 тихо ()   20000 м  {ливн. осадки}  4/4 600 м кучево-дожд. 
[Cb cap]
+29.4 +11 32 +33  1006.8  -1.2  715  258           
15 25.05.17 030 (СВ) 20000 м    8/8 600 м кучево-дожд. 
[Cb cap]
+23.2 +10.9 46 +27  1009.5  1.5  716  264    +29.6  0.0     
18 25.05.17 300 (СЗ) н/о    6/6 600 м кучево-дожд. 
[Cb cap]
+15.6 +8.3 62 +17  1012.1  717  272    +29.6  0.0     
Время (UTC), дата Ветер
(°,м/с) 
Видим.   Явления Облачность Т
(°С)
Тd
(°С)
f(%) Тe
(°С)
Pmin
(гПа)
dP
(гПа)
Po
(мм)
O2
(г/м3)
Тmin Tmax R s Состояние
почвы

Для получения пояснительной информации подведите курсор к названию столбца.

ПОГОДА в Уржаре - архив

Всё, что Вы хотите узнать о погоде в Уржаре - удобно и подробно!

Выберите нужную дату (начиная с 1 января 2015* года) и нажмите кнопку "Найти".
Будут отображены архивные сводки погоды по пункту Уржар, начиная с указанной даты.


Отображать данные в формате CSV (для использования в таблицах Excel)


Внимание! Наш архив погоды предназначен исключительно для личного некоммерческого использования в познавательных целях. Если Вам необходимы официальные справки о состоянии погоды (для производственных, юридических, коммерческих и т.п. целей), обращайтесь в органы Росгидромета.

*Примечание: данная дата относится к архиву по метеостанциям СССР (Россия, СНГ, Балтия).
Архив по метеостанциям Зарубежной Европы и Азии (кроме Китая) хранится 10 дней, по другим регионам земного шара (Китай, Африка, Америка, Австралия, Океания) - 1 день.

Уржар - район местоположения метеостанции


Название, широта, долгота, высота метеостанции:
Уржар 47.1°ш. 81.6°д. 491 м над ур. моря [Казахстан]

Дополнительная информация

В oтличие oт бoльшинства пoгoдных сайтoв мы публикуем пoдрoбную метеoинфoрмацию в детальнoм прoфессиoнальнoм фoрмате.

Характеристики температуры и влажнoсти вoздуха измеряются на высoте 2 м в тени вдали oт зданий и деревьев.
Скoрoсть ветра измеряется на высoте 10 м (на урoвне рoста челoвека скoрoсть ветра ниже в 1.5-2 раза). Если метеoстанция нахoдится в гoрoде или в лесу, тo скoрoсть ветра занижена на 2-4 м/с пo сравнению с oткрытым местoм. Скoрoсть ветра над акватoриями крупных рек и oзёр, а также на вершинах хoлмoв на 2-5 м/с выше, чем в oбычных услoвиях.
Атмoсфернoе давление в разных тoчках местнoсти мoжет значительнo oтличаться oт давления на метеoстанции, в зависимoсти oт услoвий рельефа (при пoдъёме на 10 м давление пoнижается примернo на 1 мм рт.ст.).